GW5561 Weather Reports


time (UTC)temp
F
wind
direction
speed
knots
gust
knots
rain 1hr
in
rain 24hr
in
rain mn
in
humidity
%
barometer
mb
20260505083949 59 76 0.0 0.0 0.00 0.00 0.00 91 1000.6
20260505083446 59 76 0.0 0.0 0.00 0.00 0.00 91 1000.8
20260505082942 59 76 0.0 0.0 0.00 0.00 0.00 91 1000.7
20260505082438 59 76 0.0 0.0 0.00 0.00 0.00 90 1000.5
20260505081935 59 76 0.0 0.0 0.00 0.00 0.00 89 1000.5
20260505081432 59 76 0.0 0.0 0.00 0.00 0.00 89 1000.6
20260505080928 60 76 0.0 0.0 0.00 0.00 0.00 89 1000.5
20260505080425 60 76 0.0 0.0 0.00 0.00 0.00 88 1000.6
20260505075920 60 76 0.0 0.0 0.00 0.00 0.00 88 1000.5
20260505075417 60 76 0.0 0.0 0.00 0.00 0.00 88 1000.4
20260505074915 60 76 0.0 0.0 0.00 0.00 0.00 88 1000.7
20260505074412 61 76 0.0 0.0 0.00 0.00 0.00 87 1000.6
20260505073909 61 76 0.0 0.0 0.00 0.00 0.00 86 1000.7
20260505073407 61 76 0.0 0.0 0.00 0.00 0.00 84 1000.8
20260505072904 62 74 0.0 0.0 0.00 0.00 0.00 83 1000.8
20260505072400 62 83 0.0 0.0 0.00 0.00 0.00 82 1000.4
20260505071856 62 77 0.0 0.0 0.00 0.00 0.00 81 1000.6
20260505071352 62 71 0.0 0.0 0.00 0.00 0.00 81 1000.8
20260505070851 62 104 0.0 0.9 0.00 0.00 0.00 80 1000.5
20260505070346 63 94 0.0 0.0 0.00 0.00 0.00 79 1000.6
20260505065842 63 175 0.0 0.9 0.00 0.00 0.00 79 1000.6
20260505065339 63 116 0.0 2.6 0.00 0.00 0.00 78 1000.5
20260505064836 63 103 0.0 0.9 0.00 0.00 0.00 78 1000.4
20260505064333 63 100 0.9 0.9 0.00 0.00 0.00 78 1000.6
20260505063831 63 150 0.9 2.6 0.00 0.00 0.00 78 1000.7
20260505063327 63 74 0.0 0.9 0.00 0.00 0.00 78 1000.2
20260505062824 63 81 0.0 0.9 0.00 0.00 0.00 78 1000.5
20260505062321 63 153 2.6 2.6 0.00 0.00 0.00 78 1000.6
20260505061818 63 337 0.9 1.7 0.00 0.00 0.00 78 1000.5
20260505061316 63 115 0.9 1.7 0.00 0.00 0.00 78 1000.4
20260505060813 63 189 0.9 1.7 0.00 0.00 0.00 78 1000.7
20260505060310 63 138 0.0 1.7 0.00 0.00 0.00 78 1000.7
20260505055805 63 95 0.0 1.7 0.00 0.00 0.00 78 1000.8
20260505055303 63 249 0.9 1.7 0.00 0.00 0.00 78 1000.8
20260505054759 63 117 0.9 1.7 0.00 0.00 0.00 79 1000.7
20260505054257 62 115 0.9 0.9 0.00 0.00 0.00 80 1001.3
20260505053755 62 102 0.0 1.7 0.00 0.00 0.00 81 1001.2
20260505053251 62 94 0.0 1.7 0.00 0.00 0.00 81 1001.3
20260505052748 62 99 0.0 0.0 0.00 0.00 0.00 81 1000.9
20260505052245 62 97 0.0 0.9 0.00 0.00 0.00 82 1001.1
20260505051742 62 91 0.0 1.7 0.00 0.00 0.00 81 1001.1
20260505051240 62 101 0.0 0.9 0.00 0.00 0.00 80 1001.2
20260505050738 62 94 0.0 0.9 0.00 0.00 0.00 82 1001.3
20260505050236 62 97 0.0 1.7 0.00 0.00 0.00 81 1001.4
20260505041706 62 100 0.0 0.9 0.00 0.00 0.00 82 1002.0
20260505041203 62 101 0.0 0.0 0.00 0.00 0.00 82 1002.1
20260505040700 62 85 0.0 0.0 0.00 0.00 0.00 82 1002.1
20260505040157 63 87 0.0 0.0 0.00 0.00 0.00 81 1002.1
20260505035654 63 87 0.0 0.0 0.00 0.00 0.00 80 1001.9
20260505035150 64 55 0.0 0.9 0.00 0.00 0.00 77 1002.2
20260505034647 64 79 0.0 0.0 0.00 0.00 0.00 75 1002.3
20260505034144 64 108 0.0 0.9 0.00 0.00 0.00 76 1002.2
20260505033640 64 95 0.0 0.0 0.00 0.00 0.00 75 1002.2
20260505033139 64 102 0.0 0.9 0.00 0.00 0.00 74 1002.3
20260505032637 64 112 0.9 1.7 0.00 0.00 0.00 76 1002.3
20260505032132 64 108 0.0 1.7 0.00 0.00 0.00 76 1002.4
20260505031630 64 101 0.0 0.9 0.00 0.00 0.00 76 1002.0
20260505031126 64 102 0.0 0.9 0.00 0.00 0.00 77 1002.3
20260505030623 64 88 0.0 0.9 0.00 0.00 0.00 75 1002.1
20260505030119 64 107 0.0 0.9 0.00 0.00 0.00 76 1001.9
20260505025615 64 95 0.0 0.9 0.00 0.00 0.00 77 1002.0
20260505025114 64 62 0.0 0.9 0.00 0.00 0.00 76 1001.8
20260505024611 65 91 0.0 0.0 0.00 0.00 0.00 76 1001.9
20260505024108 65 101 0.0 0.0 0.00 0.00 0.00 74 1001.7
20260505023605 65 54 0.9 1.7 0.00 0.00 0.00 72 1001.8
20260505023103 65 90 0.0 0.9 0.00 0.00 0.00 74 1001.7
20260505022600 65 98 0.0 0.9 0.00 0.00 0.00 74 1001.5
20260505022057 64 55 0.0 1.7 0.00 0.00 0.00 74 1001.5
20260505021553 64 77 0.0 0.0 0.00 0.00 0.00 77 1001.7
20260505021050 65 86 0.0 0.0 0.00 0.00 0.00 77 1001.3
20260505020550 65 82 0.0 0.0 0.00 0.00 0.00 76 1001.3
20260505020047 66 91 0.0 0.0 0.00 0.00 0.00 73 1001.3
20260505015544 66 69 0.0 0.0 0.00 0.00 0.00 73 1001.3
20260505015041 66 78 0.0 0.0 0.00 0.00 0.00 71 1001.2
20260505014538 66 100 0.0 0.0 0.00 0.00 0.00 72 1001.2
20260505014035 66 104 0.0 0.0 0.00 0.00 0.00 73 1001.1
20260505013532 66 94 0.0 0.0 0.00 0.00 0.00 73 1001.0
20260505013029 68 101 0.0 0.0 0.00 0.00 0.00 71 1000.9
20260505012527 68 102 0.0 0.9 0.00 0.00 0.00 70 1001.1
20260505012024 68 90 0.0 0.0 0.00 0.00 0.00 69 1000.6
20260505011519 68 69 0.0 0.0 0.00 0.00 0.00 67 1000.7
20260505011017 68 66 0.0 0.9 0.00 0.00 0.00 66 1000.7
20260505010512 69 101 0.0 0.0 0.00 0.00 0.00 66 1000.6
20260505010009 70 101 0.0 0.0 0.00 0.00 0.00 69 1000.6
20260505005506 70 107 0.0 0.0 0.00 0.00 0.00 64 1000.7
20260505005004 70 100 0.0 0.0 0.00 0.00 0.00 64 1000.5
20260505004500 71 93 0.0 0.0 0.00 0.00 0.00 64 1000.4
20260505003956 71 84 0.0 0.0 0.00 0.00 0.00 62 1000.6
20260505003454 72 100 0.9 0.9 0.00 0.00 0.00 61 1000.3
20260505002950 72 111 0.0 1.7 0.00 0.00 0.00 60 1000.6
20260505002446 73 98 0.0 0.9 0.00 0.00 0.00 59 1000.6
20260505001945 73 193 1.7 4.3 0.00 0.00 0.00 55 1000.7
20260505001442 73 116 0.0 0.0 0.00 0.00 0.00 56 1000.5
20260505000939 74 160 0.9 1.7 0.00 0.00 0.00 56 1000.8
20260505000437 74 103 0.0 0.0 0.00 0.00 0.00 55 1000.5
20260504235933 75 91 0.9 2.6 0.00 0.00 0.00 55 1000.5
20260504235431 75 153 0.0 0.9 0.00 0.00 0.00 54 1000.8
20260504234926 75 95 0.0 1.7 0.00 0.00 0.00 54 1000.5
20260504234424 75 138 0.9 4.3 0.00 0.00 0.00 53 1000.6
20260504233921 75 96 0.0 1.7 0.00 0.00 0.00 54 1000.4
20260504233417 75 50 0.9 1.7 0.00 0.00 0.00 54 1000.4
20260504232913 76 126 0.0 1.7 0.00 0.00 0.00 54 1000.5
20260504232410 76 135 2.6 4.3 0.00 0.00 0.00 53 1000.7
20260504231908 76 183 1.7 2.6 0.00 0.00 0.00 54 1000.5
20260504231404 76 169 0.9 1.7 0.00 0.00 0.00 55 1000.7
20260504230900 76 104 2.6 2.6 0.00 0.00 0.00 54 1000.9
20260504230357 77 70 0.9 4.3 0.00 0.00 0.00 52 1000.6
20260504225856 77 142 2.6 2.6 0.00 0.00 0.00 54 1000.8
20260504225352 77 147 1.7 6.1 0.00 0.00 0.00 50 1000.8
20260504224850 77 112 0.9 2.6 0.00 0.00 0.00 54 1000.8
20260504224346 77 132 0.9 1.7 0.00 0.00 0.00 52 1000.8
20260504223843 78 142 0.9 2.6 0.00 0.00 0.00 52 1000.9
20260504223339 78 108 0.9 2.6 0.00 0.00 0.00 52 1000.6
20260504222835 78 157 0.9 1.7 0.00 0.00 0.00 53 1000.9
20260504222332 78 68 0.9 5.2 0.00 0.00 0.00 52 1000.8
20260504221831 78 227 2.6 4.3 0.00 0.00 0.00 48 1001.4
20260504221327 79 76 0.9 6.1 0.00 0.00 0.00 51 1001.0
20260504220824 79 91 0.0 0.9 0.00 0.00 0.00 51 1001.2
20260504220321 79 237 1.7 4.3 0.00 0.00 0.00 49 1001.0
20260504215819 79 114 1.7 2.6 0.00 0.00 0.00 50 1001.1
20260504215315 79 107 2.6 4.3 0.00 0.00 0.00 49 1001.3
20260504214811 79 266 7.8 8.7 0.00 0.00 0.00 47 1001.3
20260504214308 79 105 2.6 4.3 0.00 0.00 0.00 49 1001.3
20260504213804 79 249 1.7 2.6 0.00 0.00 0.00 50 1001.2
20260504213300 79 266 4.3 6.1 0.00 0.00 0.00 47 1001.6
20260504212758 79 207 0.9 5.2 0.00 0.00 0.00 51 1001.4
20260504212254 80 238 2.6 6.1 0.00 0.00 0.00 48 1001.6
20260504211752 79 132 0.9 4.3 0.00 0.00 0.00 49 1001.3
20260504211247 79 135 0.9 4.3 0.00 0.00 0.00 49 1001.5
20260504210745 79 128 2.6 4.3 0.00 0.00 0.00 49 1001.9
20260504210242 80 224 4.3 6.1 0.00 0.00 0.00 47 1001.8
20260504205739 80 233 0.9 4.3 0.00 0.00 0.00 47 1001.6
20260504205237 80 139 2.6 8.7 0.00 0.00 0.00 50 1001.5
20260504204735 79 133 2.6 2.6 0.00 0.00 0.00 50 1001.8
20260504204233 79 266 5.2 6.1 0.00 0.00 0.00 47 1001.5
20260504203732 79 166 3.5 5.2 0.00 0.00 0.00 47 1002.0
20260504203229 79 169 0.9 1.7 0.00 0.00 0.00 48 1002.1
20260504202729 80 131 1.7 2.6 0.00 0.00 0.00 51 1002.1
20260504202226 79 216 3.5 4.3 0.00 0.00 0.00 48 1002.1
20260504201724 79 293 1.7 5.2 0.00 0.00 0.00 48 1002.3
20260504201221 80 263 5.2 7.0 0.00 0.00 0.00 46 1002.4
20260504200718 80 111 0.9 1.7 0.00 0.00 0.00 48 1002.1
20260504200214 80 292 2.6 5.2 0.00 0.00 0.00 45 1002.5
20260504195711 80 189 3.5 5.2 0.00 0.00 0.00 46 1002.1
20260504195207 81 152 6.1 8.7 0.00 0.00 0.00 44 1002.2
20260504194704 81 127 1.7 4.3 0.00 0.00 0.00 47 1002.3
20260504194200 81 185 2.6 5.2 0.00 0.00 0.00 45 1002.4
20260504193656 81 96 0.9 1.7 0.00 0.00 0.00 47 1002.3
20260504193154 81 147 0.9 5.2 0.00 0.00 0.00 44 1002.6
20260504192652 82 243 2.6 6.1 0.00 0.00 0.00 44 1002.5
20260504192150 81 12 2.6 5.2 0.00 0.00 0.00 45 1002.7
20260504191648 82 253 3.5 4.3 0.00 0.00 0.00 46 1002.9
20260504191144 82 149 1.7 4.3 0.00 0.00 0.00 44 1002.7
20260504190640 81 121 0.0 1.7 0.00 0.00 0.00 47 1002.6
20260504190137 81 168 1.7 6.1 0.00 0.00 0.00 45 1002.7
20260504185633 81 83 1.7 5.2 0.00 0.00 0.00 45 1002.9
20260504185130 81 116 0.0 4.3 0.00 0.00 0.00 46 1002.7
20260504184626 81 36 0.9 4.3 0.00 0.00 0.00 46 1003.0
20260504184121 81 185 2.6 4.3 0.00 0.00 0.00 45 1002.9
20260504183618 81 205 1.7 2.6 0.00 0.00 0.00 45 1002.9
20260504183116 81 261 4.3 6.1 0.00 0.00 0.00 45 1003.0
20260504182614 82 258 2.6 5.2 0.00 0.00 0.00 44 1003.1
20260504182111 82 160 5.2 7.0 0.00 0.00 0.00 43 1003.2
20260504181608 82 94 1.7 2.6 0.00 0.00 0.00 47 1003.1
20260504181105 82 100 0.0 5.2 0.00 0.00 0.00 45 1003.0
20260504180604 82 311 0.9 4.3 0.00 0.00 0.00 46 1003.2
20260504180103 81 158 1.7 2.6 0.00 0.00 0.00 46 1003.2
20260504175600 81 127 1.7 4.3 0.00 0.00 0.00 50 1003.0
20260504175056 82 268 3.5 5.2 0.00 0.00 0.00 45 1002.9
20260504174555 81 122 0.9 1.7 0.00 0.00 0.00 50 1003.0
20260504174051 80 129 1.7 2.6 0.00 0.00 0.00 47 1003.1
20260504173548 80 57 0.9 4.3 0.00 0.00 0.00 48 1003.1
20260504173045 79 85 0.9 4.3 0.00 0.00 0.00 49 1003.2
20260504172541 79 151 2.6 7.0 0.00 0.00 0.00 48 1003.3
20260504172038 79 237 4.3 6.1 0.00 0.00 0.00 44 1003.3
20260504171535 80 197 3.5 5.2 0.00 0.00 0.00 45 1003.5
20260504171032 80 120 2.6 5.2 0.00 0.00 0.00 47 1003.4
20260504170528 79 257 4.3 7.0 0.00 0.00 0.00 46 1003.3
20260504150912 73 115 0.0 1.7 0.00 0.00 0.00 59 1004.3
20260504150409 73 111 0.9 4.3 0.00 0.00 0.00 56 1004.2
20260504140835 68 108 0.0 0.9 0.00 0.00 0.00 63 1004.9
20260504140330 67 66 0.0 0.9 0.00 0.00 0.00 67 1004.6
20260504130800 57 97 0.0 0.0 0.00 0.00 0.00 97 1005.0
20260504130256 57 94 0.0 0.0 0.00 0.00 0.00 99 1005.0
20260504120219 48 87 0.0 0.0 0.00 0.00 0.00 99 1005.0
20260504110647 47 87 0.0 0.0 0.00 0.00 0.00 99 1004.9
20260504110143 47 87 0.0 0.0 0.00 0.00 0.00 99 1005.0
20260504100609 47 70 0.0 0.0 0.00 0.00 0.00 99 1005.4
20260504100107 47 70 0.0 0.0 0.00 0.00 0.00 99 1005.3